Alva, OK

11:14 PM CDT on April 29, 2017 (GMT -0500)
Alva Regional

Weather History for KAVK - March, 2014

Change the Weather History Date:

Tuesday, March 4, 2014

  Actual Average Record
Temperature  
Mean Temperature 28 °F -  
Max Temperature 42 °F 53 °F 81 °F (1956)
Min Temperature 15 °F 29 °F 4 °F (1960)
Degree Days  
Heating Degree Days 36    
Moisture  
Dew Point 27 °F    
Average Humidity 76    
Maximum Humidity 93    
Minimum Humidity 60    
Precipitation  
Precipitation 0.00 in - - ()
Sea Level Pressure  
Sea Level Pressure 29.97 in    
Wind  
Wind Speed 11 mph (SE)    
Max Wind Speed 17 mph    
Max Gust Speed 18 mph    
Visibility 10 miles    
Events      
Averages and records for this station are not official NWS values.
T = Trace of Precipitation, MM = Missing Value Source: NWS Daily Summary

Daily Weather History Graph

Daily Weather History Graph

Search for Another Location

Airport or City:

Trip Planner

Search our weather history database for the weather conditions in past years. The results will help you decide how hot, cold, wet, or windy it might be!

Date:

Astronomy

Mar. 04, 2014 Rise Set
Actual Time 7:01 AM CST 6:31 PM CST
Civil Twilight 6:35 AM CST 6:57 PM CST
Nautical Twilight 6:05 AM CST 7:27 PM CST
Astronomical Twilight 5:35 AM CST 7:57 PM CST
Moon 8:54 AM CST (3/4) 10:33 PM CST (3/4)
Length of Visible Light 12h 22m
Length of Day
11h 30m
Waxing Crescent, 15% of the Moon is Illuminated
Mar 4
Waxing Crescent
Mar 8
First Quarter
Mar 16
Full
Mar 23
Last Quarter
Mar 30
New

Hourly Weather History & Observations

Time (CST) Temp. Windchill Dew Point Humidity Pressure Visibility Wind Dir Wind Speed Gust Speed Precip Events Conditions
8:55 AM 15.8 °F 2.1 °F 10.4 °F 79% 30.05 in 9.0 mi South 12.7 mph - N/A   Clear
9:10 AM 17.6 °F 5.0 °F 12.2 °F 79% 30.06 in 9.0 mi South 11.5 mph - N/A   Clear
9:30 AM 19.4 °F 7.2 °F 14.0 °F 80% 30.05 in 10.0 mi South 11.5 mph - N/A   Clear
9:50 AM 24.8 °F 11.5 °F 17.6 °F 74% 30.04 in 10.0 mi SSW 17.3 mph - N/A   Clear
10:10 AM 26.6 °F 14.3 °F 17.6 °F 69% 30.05 in 10.0 mi SSW 16.1 mph - N/A   Clear
10:30 AM 26.6 °F 17.5 °F 19.4 °F 74% 30.05 in 10.0 mi SSW 9.2 mph - N/A   Clear
10:50 AM 28.4 °F 21.2 °F 19.4 °F 69% 30.05 in 10.0 mi SSW 6.9 mph - N/A   Clear
11:10 AM 32.0 °F 28.7 °F 19.4 °F 60% 30.04 in 10.0 mi South 3.5 mph - N/A   Clear
11:30 AM 32.0 °F 27.5 °F 21.2 °F 64% 30.04 in 10.0 mi SSE 4.6 mph - N/A   Clear
11:50 AM 32.0 °F 26.4 °F 23.0 °F 69% 30.03 in 10.0 mi South 5.8 mph - N/A   Clear
12:10 PM 33.8 °F 26.4 °F 23.0 °F 65% 30.03 in 10.0 mi SSE 9.2 mph - N/A   Clear
12:30 PM 32.0 °F 25.6 °F 24.8 °F 75% 30.03 in 10.0 mi ESE 6.9 mph - N/A   Clear
12:55 PM 33.8 °F 27.0 °F 24.8 °F 70% 30.01 in 10.0 mi ESE 8.1 mph - N/A   Clear
1:10 PM 35.6 °F 29.2 °F 26.6 °F 70% 30.00 in 10.0 mi ESE 8.1 mph - N/A   Clear
1:30 PM 37.4 °F 32.1 °F 26.6 °F 65% 29.99 in 10.0 mi ESE 6.9 mph - N/A   Clear
1:50 PM 37.4 °F 30.3 °F 26.6 °F 65% 29.99 in 10.0 mi SE 10.4 mph - N/A   Clear
2:10 PM 37.4 °F 28.9 °F 28.4 °F 70% 29.96 in 10.0 mi SE 13.8 mph - N/A   Clear
2:30 PM 39.2 °F 30.8 °F 28.4 °F 65% 29.95 in 10.0 mi SE 15.0 mph - N/A   Clear
2:50 PM 39.2 °F 31.6 °F 28.4 °F 65% 29.95 in 10.0 mi SE 12.7 mph - N/A   Clear
3:10 PM 39.2 °F 31.6 °F 28.4 °F 65% 29.95 in 10.0 mi ESE 12.7 mph - N/A   Clear
3:30 PM 41.0 °F 33.9 °F 32.0 °F 70% 29.93 in 10.0 mi SE 12.7 mph - N/A   Clear
3:50 PM 41.0 °F 33.9 °F 32.0 °F 70% 29.92 in 10.0 mi SE 12.7 mph 18.4 mph N/A   Clear
4:15 PM 42.8 °F 36.2 °F 32.0 °F 66% 29.92 in 10.0 mi SE 12.7 mph - N/A   Clear
4:30 PM 42.8 °F 36.6 °F 32.0 °F 66% 29.92 in 10.0 mi SE 11.5 mph - N/A   Clear
4:50 PM 42.8 °F 36.6 °F 32.0 °F 66% 29.92 in 10.0 mi SE 11.5 mph - N/A   Clear
5:10 PM 42.8 °F 36.2 °F 32.0 °F 66% 29.91 in 10.0 mi ESE 12.7 mph - N/A   Clear
5:30 PM 41.0 °F 34.7 °F 32.0 °F 70% 29.92 in 10.0 mi ESE 10.4 mph - N/A   Clear
5:50 PM 41.0 °F 34.7 °F 32.0 °F 70% 29.93 in 10.0 mi ESE 10.4 mph - N/A   Clear
6:10 PM 37.4 °F 30.8 °F 32.0 °F 81% 29.93 in 10.0 mi East 9.2 mph - N/A   Clear
6:30 PM 37.4 °F 29.8 °F 32.0 °F 81% 29.93 in 10.0 mi ESE 11.5 mph - N/A   Clear
6:50 PM 35.6 °F 27.5 °F 32.0 °F 87% 29.94 in 10.0 mi ESE 11.5 mph - N/A   Clear
7:10 PM 35.6 °F 27.1 °F 32.0 °F 87% 29.93 in 10.0 mi SE 12.7 mph - N/A   Clear
7:30 PM 35.6 °F 26.6 °F 32.0 °F 87% 29.93 in 10.0 mi SE 13.8 mph - N/A   Clear
7:50 PM 35.6 °F 27.5 °F 32.0 °F 87% 29.93 in 10.0 mi SE 11.5 mph - N/A   Clear
8:10 PM 35.6 °F 27.5 °F 32.0 °F 87% 29.93 in 10.0 mi SE 11.5 mph - N/A   Clear
8:30 PM 33.8 °F 27.0 °F 30.2 °F 87% 29.94 in 10.0 mi SE 8.1 mph - N/A   Clear
8:50 PM 32.0 °F 24.8 °F 30.2 °F 93% 29.95 in 10.0 mi SE 8.1 mph - N/A   Clear
9:10 PM 33.8 °F 27.0 °F 30.2 °F 87% 29.95 in 10.0 mi SE 8.1 mph - N/A   Clear
9:30 PM 33.8 °F 25.8 °F 30.2 °F 87% 29.95 in 10.0 mi SSE 10.4 mph - N/A   Clear
9:50 PM 32.0 °F 26.4 °F 30.2 °F 93% 29.95 in 10.0 mi SSE 5.8 mph - N/A   Clear
10:10 PM 32.0 °F 25.6 °F 28.4 °F 87% 29.95 in 10.0 mi SE 6.9 mph - N/A   Clear
10:30 PM 32.0 °F 26.4 °F 28.4 °F 87% 29.95 in 10.0 mi SE 5.8 mph - N/A   Clear
10:50 PM 32.0 °F 25.6 °F 28.4 °F 87% 29.95 in 10.0 mi SE 6.9 mph - N/A   Clear
11:10 PM 32.0 °F 25.6 °F 28.4 °F 87% 29.95 in 10.0 mi SE 6.9 mph - N/A   Clear
11:30 PM 32.0 °F 25.6 °F 28.4 °F 87% 29.95 in 10.0 mi SE 6.9 mph - N/A   Clear
11:50 PM 32.0 °F 26.4 °F 28.4 °F 87% 29.96 in 10.0 mi SSE 5.8 mph - N/A   Clear